QPF
0.03 0.05 0.07 0.07 0.06 0.04 0.04 0.02 0.02 0.04 0.05 0.05 0.04 0.03 0.02 0.03 0.03 0.03 0.02 0.02 0.02 0.02 0.02 0.03 0.02 0.03 0.03 0.02 0.02 0.03 0.03 0.05 0.05 0.08 0.09 0.08 0.08 0.09 0.09 0.08 0.08 0.07 0.06
0.04 0.04 0.06 0.08 0.06 0.04 0.04 0.03 0.02 0.03 0.03 0.04 0.04 0.04 0.03 0.03 0.03 0.03 0.04 0.03 0.02 0.02 0.02 0.03 0.02 0.03 0.03 0.03 0.02 0.02 0.03 0.04 0.04 0.05 0.07 0.07 0.09 0.09 0.09 0.08 0.08 0.08 0.08
0.03 0.03 0.05 0.06 0.06 0.03 0.02 0.02 0.02 0.02 0.02 0.05 0.06 0.05 0.06 0.05 0.04 0.04 0.04 0.03 0.02 0.02 0.03 0.02 0.02 0.02 0.03 0.03 0.02 0.03 0.02 0.03 0.03 0.03 0.03 0.02 0.03 0.04 0.07 0.09 0.09 0.08 0.09
0.02 0.02 0.03 0.04 0.04 0.02 0.02 0.02 0.03 0.03 0.03 0.04 0.05 0.04 0.03 0.02 0.02 0.02 0.03 0.03 0.03 0.02 0.02 0.02 0.02 0.01 0.02 0.03 0.03 0.03 0.02 0.02 0.02 0.02 0.02 0.01 0.01 0.01 0.03 0.06 0.07 0.07 0.07
0.03 0.04 0.04 0.05 0.06 0.05 0.04 0.04 0.05 0.05 0.04 0.05 0.04 0.04 0.03 0.03 0.03 0.03 0.03 0.02 0.03 0.03 0.02 0.01 0.01 0.01 0.01 0.02 0.02 0.02 0.02 0.01 0.01 0.01 0.01 0.01 0.01 0.01 0.01 0.02 0.02 0.03 0.04
0.04 0.07 0.10 0.10 0.10 0.09 0.08 0.07 0.08 0.09 0.09 0.07 0.05 0.04 0.03 0.03 0.04 0.03 0.03 0.02 0.02 0.03 0.02 0.01 0.01 0.02 0.02 0.01 0.01 0.01 0.01 0.01 0.01 0.00 0.01 0.02 0.02 0.01 0.01 0.00 0.00 0.01 0.02
0.04 0.07 0.13 0.15 0.16 0.16 0.14 0.12 0.11 0.11 0.11 0.10 0.06 0.04 0.04 0.04 0.04 0.02 0.02 0.01 0.02 0.02 0.02 0.02 0.01 0.02 0.02 0.01 0.01 0.01 0.00 0.01 0.00 0.00 0.01 0.01 0.01 0.01 0.00 0.00 0.00 0.00 0.00
0.04 0.04 0.08 0.12 0.12 0.13 0.14 0.15 0.11 0.10 0.10 0.09 0.07 0.06 0.05 0.06 0.05 0.03 0.02 0.02 0.01 0.01 0.01 0.01 0.02 0.02 0.01 0.01 0.02 0.01 0.01 0.01 0.00 0.00 0.00 0.00 0.00 0.00 0.00 0.00 0.00 0.00 0.00
0.05 0.04 0.07 0.08 0.07 0.06 0.07 0.11 0.13 0.12 0.10 0.09 0.10 0.10 0.09 0.08 0.07 0.05 0.04 0.03 0.03 0.03 0.02 0.02 0.02 0.01 0.01 0.01 0.01 0.01 0.01 0.01 0.01 0.00 0.00 0.00 0.00 0.00 0.00 0.00 0.00 0.00 0.00
0.05 0.05 0.06 0.08 0.04 0.04 0.06 0.09 0.11 0.13 0.12 0.11 0.10 0.10 0.13 0.12 0.09 0.07 0.05 0.04 0.03 0.03 0.03 0.02 0.02 0.02 0.01 0.02 0.01 0.01 0.01 0.01 0.00 0.00 0.00 0.00 0.00 0.00 0.00 0.00 0.00 0.00 0.00
0.05 0.06 0.05 0.06 0.06 0.05 0.07 0.09 0.10 0.10 0.12 0.11 0.10 0.10 0.11 0.12 0.12 0.09 0.06 0.04 0.03 0.02 0.02 0.02 0.02 0.02 0.01 0.01 0.01 0.00 0.01 0.01 0.00 0.00 0.00 0.00 0.01 0.01 0.00 0.00 0.00 0.00 0.00
0.06 0.07 0.08 0.13 0.18 0.13 0.10 0.09 0.07 0.07 0.07 0.10 0.11 0.11 0.12 0.10 0.08 0.07 0.06 0.05 0.03 0.03 0.02 0.01 0.01 0.01 0.01 0.01 0.01 0.00 0.01 0.00 0.00 0.00 0.00 0.00 0.00 0.01 0.01 0.01 0.01 0.00 0.00
0.06 0.07 0.10 0.15 0.17 0.15 0.09 0.08 0.07 0.06 0.06 0.07 0.09 0.08 0.08 0.06 0.05 0.05 0.04 0.03 0.03 0.02 0.01 0.01 0.00 0.01 0.01 0.00 0.00 0.00 0.01 0.00 0.00 0.00 0.00 0.00 0.00 0.01 0.01 0.01 0.01 0.00 0.00
0.10 0.10 0.12 0.17 0.15 0.09 0.07 0.07 0.07 0.06 0.06 0.06 0.06 0.06 0.05 0.04 0.04 0.04 0.03 0.02 0.02 0.01 0.01 0.00 0.01 0.01 0.01 0.00 0.00 0.00 0.01 0.00 0.00 0.00 0.00 0.00 0.00 0.00 0.01 0.01 0.01 0.00 0.00
0.12 0.13 0.14 0.21 0.19 0.13 0.11 0.10 0.09 0.06 0.05 0.05 0.06 0.06 0.06 0.07 0.07 0.04 0.03 0.02 0.01 0.01 0.01 0.00 0.01 0.01 0.01 0.00 0.00 0.00 0.00 0.00 0.00 0.00 0.00 0.00 0.00 0.00 0.00 0.01 0.01 0.00 0.00
0.07 0.10 0.08 0.13 0.12 0.10 0.10 0.11 0.10 0.07 0.05 0.05 0.05 0.06 0.07 0.07 0.06 0.05 0.04 0.03 0.02 0.01 0.01 0.00 0.00 0.01 0.01 0.00 0.00 0.00 0.00 0.00 0.00 0.00 0.00 0.00 0.00 0.00 0.00 0.00 0.00 0.00 0.00
0.06 0.07 0.06 0.08 0.14 0.15 0.11 0.09 0.08 0.07 0.05 0.04 0.04 0.04 0.05 0.06 0.06 0.06 0.04 0.03 0.02 0.01 0.01 0.01 0.01 0.00 0.00 0.00 0.00 0.00 0.00 0.00 0.00 0.00 0.00 0.00 0.00 0.00 0.00 0.00 0.00 0.00 0.00
0.07 0.06 0.06 0.08 0.09 0.11 0.13 0.13 0.08 0.06 0.04 0.04 0.03 0.03 0.04 0.04 0.05 0.06 0.04 0.03 0.02 0.01 0.01 0.01 0.01 0.01 0.00 0.00 0.01 0.00 0.00 0.00 0.00 0.00 0.00 0.00 0.00 0.00 0.00 0.00 0.00 0.00 0.00
0.10 0.10 0.09 0.07 0.05 0.05 0.08 0.16 0.10 0.05 0.04 0.03 0.03 0.03 0.04 0.04 0.04 0.04 0.04 0.03 0.03 0.02 0.01 0.01 0.01 0.01 0.01 0.00 0.01 0.01 0.00 0.00 0.00 0.00 0.00 0.00 0.00 0.00 0.00 0.01 0.01 0.01 0.01
0.07 0.09 0.10 0.08 0.07 0.07 0.09 0.12 0.11 0.06 0.03 0.03 0.03 0.05 0.06 0.05 0.03 0.03 0.03 0.03 0.03 0.03 0.02 0.01 0.01 0.01 0.01 0.01 0.01 0.01 0.01 0.00 0.01 0.01 0.01 0.01 0.01 0.02 0.01 0.01 0.00 0.00 0.00
0.03 0.04 0.05 0.06 0.10 0.09 0.12 0.15 0.13 0.11 0.08 0.06 0.05 0.06 0.06 0.07 0.06 0.05 0.05 0.04 0.04 0.04 0.04 0.02 0.02 0.02 0.02 0.02 0.03 0.03 0.03 0.03 0.02 0.02 0.02 0.03 0.03 0.02 0.02 0.01 0.00 0.00 0.00
0.02 0.02 0.03 0.04 0.05 0.06 0.09 0.10 0.10 0.08 0.09 0.09 0.10 0.11 0.08 0.08 0.08 0.08 0.07 0.07 0.06 0.06 0.04 0.03 0.03 0.03 0.03 0.03 0.04 0.04 0.04 0.03 0.02 0.02 0.02 0.02 0.02 0.02 0.01 0.01 0.00 0.00 0.00
0.02 0.03 0.03 0.03 0.04 0.05 0.06 0.07 0.09 0.11 0.11 0.10 0.12 0.12 0.13 0.10 0.09 0.08 0.08 0.09 0.09 0.08 0.07 0.06 0.04 0.03 0.03 0.03 0.03 0.04 0.04 0.03 0.02 0.01 0.01 0.01 0.01 0.01 0.01 0.00 0.00 0.00 0.00
0.03 0.04 0.04 0.05 0.07 0.06 0.05 0.06 0.06 0.07 0.08 0.08 0.11 0.09 0.08 0.08 0.09 0.09 0.08 0.08 0.06 0.05 0.05 0.03 0.03 0.03 0.03 0.02 0.02 0.02 0.02 0.02 0.01 0.02 0.01 0.01 0.00 0.00 0.00 0.00 0.00 0.00 0.00
0.04 0.05 0.08 0.09 0.10 0.11 0.08 0.06 0.05 0.05 0.06 0.07 0.09 0.10 0.10 0.09 0.08 0.07 0.07 0.07 0.05 0.05 0.05 0.04 0.04 0.04 0.03 0.03 0.03 0.02 0.02 0.02 0.02 0.02 0.01 0.01 0.00 0.00 0.00 0.00 0.00 0.00 0.01
0.05 0.06 0.09 0.08 0.06 0.10 0.10 0.08 0.06 0.06 0.08 0.10 0.10 0.11 0.11 0.11 0.08 0.08 0.09 0.09 0.09 0.10 0.10 0.08 0.06 0.05 0.04 0.05 0.04 0.03 0.02 0.02 0.03 0.02 0.01 0.01 0.01 0.00 0.00 0.00 0.00 0.00 0.01
MSLP
1005.88 1006.33 1006.80 1007.26 1007.69 1008.10 1008.51 1008.96 1009.46 1010.04 1010.68 1011.37 1012.07 1012.73 1013.33 1013.83 1014.22 1014.53 1014.77 1014.98 1015.20 1015.45 1015.75 1016.09 1016.47 1016.86 1017.26 1017.65 1018.02 1018.37 1018.70 1019.01 1019.30 1019.55 1019.75 1019.90 1019.98 1019.99 1019.93 1019.82 1019.69 1019.58 1019.51
1005.52 1005.93 1006.37 1006.78 1007.16 1007.52 1007.90 1008.33 1008.86 1009.50 1010.23 1011.02 1011.82 1012.58 1013.25 1013.78 1014.17 1014.45 1014.66 1014.84 1015.04 1015.29 1015.61 1016.00 1016.44 1016.90 1017.35 1017.77 1018.15 1018.49 1018.79 1019.06 1019.32 1019.56 1019.78 1019.95 1020.07 1020.12 1020.11 1020.03 1019.92 1019.80 1019.71
1005.32 1005.69 1006.06 1006.40 1006.70 1006.99 1007.30 1007.70 1008.23 1008.90 1009.70 1010.58 1011.48 1012.33 1013.07 1013.66 1014.07 1014.36 1014.56 1014.73 1014.92 1015.19 1015.54 1015.98 1016.47 1016.97 1017.46 1017.89 1018.26 1018.57 1018.84 1019.07 1019.30 1019.53 1019.75 1019.96 1020.13 1020.25 1020.30 1020.27 1020.20 1020.10 1019.99
1005.28 1005.57 1005.87 1006.12 1006.33 1006.52 1006.75 1007.08 1007.57 1008.25 1009.08 1010.03 1011.01 1011.95 1012.78 1013.43 1013.90 1014.22 1014.44 1014.63 1014.85 1015.14 1015.53 1016.01 1016.54 1017.08 1017.59 1018.02 1018.38 1018.65 1018.87 1019.06 1019.25 1019.46 1019.69 1019.93 1020.15 1020.34 1020.46 1020.51 1020.49 1020.40 1020.29
1005.32 1005.54 1005.75 1005.92 1006.02 1006.11 1006.24 1006.48 1006.91 1007.55 1008.39 1009.38 1010.42 1011.44 1012.35 1013.09 1013.63 1014.02 1014.30 1014.53 1014.79 1015.12 1015.55 1016.07 1016.63 1017.20 1017.71 1018.15 1018.48 1018.72 1018.90 1019.04 1019.19 1019.38 1019.61 1019.87 1020.14 1020.39 1020.58 1020.69 1020.72 1020.67 1020.56
1005.37 1005.53 1005.68 1005.77 1005.78 1005.76 1005.78 1005.93 1006.28 1006.86 1007.67 1008.66 1009.75 1010.83 1011.82 1012.64 1013.28 1013.75 1014.10 1014.40 1014.71 1015.09 1015.56 1016.10 1016.69 1017.28 1017.80 1018.23 1018.55 1018.77 1018.91 1019.02 1019.14 1019.30 1019.52 1019.79 1020.09 1020.38 1020.62 1020.78 1020.86 1020.84 1020.74
1005.38 1005.51 1005.62 1005.65 1005.59 1005.49 1005.42 1005.46 1005.72 1006.23 1006.99 1007.96 1009.05 1010.17 1011.22 1012.13 1012.86 1013.42 1013.86 1014.23 1014.60 1015.02 1015.52 1016.09 1016.69 1017.28 1017.81 1018.25 1018.56 1018.77 1018.90 1018.98 1019.08 1019.22 1019.42 1019.68 1019.98 1020.29 1020.56 1020.77 1020.88 1020.90 1020.82
1005.32 1005.46 1005.56 1005.58 1005.48 1005.32 1005.17 1005.13 1005.29 1005.72 1006.41 1007.33 1008.41 1009.54 1010.63 1011.60 1012.41 1013.06 1013.57 1014.01 1014.43 1014.89 1015.41 1015.99 1016.60 1017.20 1017.73 1018.18 1018.50 1018.72 1018.85 1018.93 1019.01 1019.14 1019.32 1019.56 1019.85 1020.15 1020.43 1020.66 1020.80 1020.85 1020.81
1005.21 1005.38 1005.52 1005.55 1005.45 1005.27 1005.07 1004.97 1005.05 1005.39 1006.00 1006.85 1007.88 1009.00 1010.10 1011.11 1011.97 1012.68 1013.26 1013.76 1014.23 1014.71 1015.24 1015.82 1016.43 1017.02 1017.57 1018.02 1018.37 1018.61 1018.76 1018.85 1018.94 1019.05 1019.21 1019.43 1019.69 1019.97 1020.25 1020.48 1020.65 1020.74 1020.75
1005.07 1005.32 1005.52 1005.60 1005.53 1005.36 1005.15 1005.00 1005.02 1005.27 1005.79 1006.56 1007.52 1008.59 1009.67 1010.69 1011.58 1012.34 1012.97 1013.51 1014.00 1014.50 1015.03 1015.61 1016.20 1016.79 1017.34 1017.81 1018.18 1018.45 1018.63 1018.76 1018.86 1018.97 1019.11 1019.30 1019.53 1019.79 1020.05 1020.29 1020.48 1020.61 1020.67
1004.95 1005.30 1005.58 1005.73 1005.72 1005.58 1005.38 1005.22 1005.19 1005.38 1005.82 1006.49 1007.36 1008.36 1009.39 1010.38 1011.28 1012.05 1012.71 1013.28 1013.80 1014.30 1014.83 1015.39 1015.97 1016.54 1017.09 1017.57 1017.97 1018.27 1018.49 1018.65 1018.77 1018.89 1019.02 1019.18 1019.38 1019.62 1019.86 1020.10 1020.31 1020.49 1020.60
1004.88 1005.33 1005.70 1005.92 1005.98 1005.90 1005.73 1005.58 1005.53 1005.67 1006.03 1006.61 1007.38 1008.29 1009.25 1010.19 1011.06 1011.84 1012.51 1013.10 1013.63 1014.14 1014.67 1015.21 1015.77 1016.32 1016.86 1017.34 1017.75 1018.08 1018.33 1018.52 1018.66 1018.79 1018.92 1019.06 1019.24 1019.45 1019.68 1019.91 1020.15 1020.36 1020.54
1004.84 1005.37 1005.82 1006.12 1006.25 1006.24 1006.13 1006.01 1005.97 1006.08 1006.38 1006.88 1007.56 1008.36 1009.24 1010.12 1010.95 1011.71 1012.38 1012.98 1013.52 1014.04 1014.55 1015.08 1015.61 1016.14 1016.65 1017.12 1017.53 1017.87 1018.15 1018.35 1018.52 1018.65 1018.78 1018.92 1019.07 1019.26 1019.48 1019.71 1019.96 1020.20 1020.43
1004.78 1005.38 1005.88 1006.25 1006.46 1006.52 1006.49 1006.43 1006.43 1006.54 1006.81 1007.24 1007.84 1008.55 1009.34 1010.14 1010.92 1011.65 1012.31 1012.90 1013.46 1013.98 1014.48 1014.99 1015.49 1015.99 1016.46 1016.91 1017.30 1017.64 1017.91 1018.13 1018.31 1018.45 1018.58 1018.71 1018.86 1019.03 1019.23 1019.46 1019.71 1019.98 1020.23
1004.63 1005.26 1005.81 1006.23 1006.51 1006.66 1006.73 1006.77 1006.83 1006.98 1007.25 1007.65 1008.18 1008.81 1009.51 1010.24 1010.95 1011.63 1012.27 1012.86 1013.41 1013.92 1014.42 1014.90 1015.37 1015.82 1016.26 1016.66 1017.02 1017.34 1017.61 1017.83 1018.01 1018.16 1018.30 1018.43 1018.57 1018.72 1018.91 1019.13 1019.38 1019.64 1019.92
1004.31 1004.95 1005.53 1006.00 1006.36 1006.62 1006.81 1006.97 1007.14 1007.36 1007.66 1008.06 1008.54 1009.11 1009.73 1010.37 1011.02 1011.64 1012.24 1012.80 1013.33 1013.83 1014.30 1014.75 1015.19 1015.60 1015.98 1016.34 1016.67 1016.96 1017.22 1017.44 1017.62 1017.79 1017.93 1018.07 1018.20 1018.35 1018.53 1018.73 1018.96 1019.21 1019.48
1003.81 1004.44 1005.03 1005.55 1006.00 1006.38 1006.70 1007.00 1007.30 1007.63 1008.00 1008.42 1008.89 1009.41 1009.95 1010.51 1011.08 1011.63 1012.17 1012.69 1013.18 1013.65 1014.09 1014.51 1014.90 1015.27 1015.61 1015.93 1016.22 1016.49 1016.74 1016.96 1017.16 1017.34 1017.50 1017.66 1017.80 1017.95 1018.11 1018.29 1018.49 1018.72 1018.96
1003.14 1003.75 1004.35 1004.92 1005.45 1005.95 1006.42 1006.88 1007.33 1007.78 1008.23 1008.70 1009.17 1009.65 1010.13 1010.61 1011.09 1011.56 1012.03 1012.48 1012.93 1013.35 1013.75 1014.13 1014.48 1014.81 1015.12 1015.41 1015.68 1015.94 1016.19 1016.43 1016.66 1016.87 1017.07 1017.25 1017.41 1017.57 1017.72 1017.88 1018.06 1018.25 1018.46
1002.39 1002.98 1003.58 1004.19 1004.80 1005.41 1006.02 1006.62 1007.22 1007.79 1008.34 1008.85 1009.33 1009.78 1010.21 1010.61 1011.00 1011.39 1011.77 1012.16 1012.53 1012.91 1013.27 1013.61 1013.93 1014.24 1014.53 1014.81 1015.08 1015.36 1015.63 1015.91 1016.18 1016.44 1016.68 1016.90 1017.09 1017.26 1017.42 1017.57 1017.72 1017.88 1018.05
1001.70 1002.26 1002.86 1003.48 1004.14 1004.83 1005.55 1006.27 1006.98 1007.65 1008.27 1008.82 1009.31 1009.74 1010.11 1010.45 1010.76 1011.06 1011.37 1011.69 1012.01 1012.34 1012.66 1012.98 1013.29 1013.59 1013.89 1014.18 1014.48 1014.79 1015.11 1015.44 1015.77 1016.08 1016.38 1016.65 1016.88 1017.08 1017.25 1017.40 1017.53 1017.67 1017.81
1001.21 1001.73 1002.29 1002.90 1003.57 1004.30 1005.06 1005.84 1006.61 1007.33 1007.99 1008.56 1009.05 1009.45 1009.78 1010.06 1010.32 1010.56 1010.81 1011.08 1011.37 1011.67 1011.98 1012.30 1012.62 1012.94 1013.26 1013.59 1013.94 1014.30 1014.67 1015.06 1015.45 1015.83 1016.19 1016.51 1016.78 1017.02 1017.21 1017.37 1017.51 1017.64 1017.76
1001.02 1001.48 1001.98 1002.53 1003.16 1003.84 1004.58 1005.35 1006.10 1006.81 1007.46 1008.01 1008.48 1008.85 1009.16 1009.41 1009.63 1009.86 1010.09 1010.35 1010.64 1010.95 1011.28 1011.63 1011.98 1012.34 1012.71 1013.09 1013.48 1013.90 1014.33 1014.78 1015.23 1015.67 1016.08 1016.45 1016.78 1017.05 1017.28 1017.46 1017.62 1017.75 1017.87
1001.19 1001.56 1001.96 1002.40 1002.92 1003.50 1004.13 1004.79 1005.45 1006.08 1006.66 1007.16 1007.58 1007.93 1008.22 1008.47 1008.71 1008.95 1009.22 1009.52 1009.85 1010.22 1010.60 1011.00 1011.42 1011.83 1012.26 1012.69 1013.14 1013.61 1014.09 1014.58 1015.08 1015.56 1016.02 1016.43 1016.80 1017.12 1017.39 1017.61 1017.79 1017.95 1018.09
1001.69 1001.95 1002.21 1002.50 1002.84 1003.24 1003.69 1004.17 1004.66 1005.15 1005.61 1006.02 1006.38 1006.70 1007.00 1007.28 1007.57 1007.89 1008.24 1008.63 1009.05 1009.51 1009.99 1010.47 1010.96 1011.45 1011.93 1012.42 1012.91 1013.41 1013.92 1014.44 1014.96 1015.46 1015.95 1016.40 1016.81 1017.16 1017.47 1017.74 1017.97 1018.16 1018.33
1002.43 1002.56 1002.66 1002.76 1002.89 1003.05 1003.26 1003.51 1003.78 1004.07 1004.37 1004.67 1004.96 1005.26 1005.58 1005.92 1006.30 1006.73 1007.21 1007.74 1008.30 1008.88 1009.47 1010.06 1010.63 1011.18 1011.72 1012.24 1012.76 1013.27 1013.79 1014.31 1014.84 1015.35 1015.85 1016.32 1016.75 1017.15 1017.50 1017.82 1018.10 1018.34 1018.55
1003.29 1003.28 1003.22 1003.12 1003.01 1002.92 1002.87 1002.85 1002.88 1002.95 1003.07 1003.24 1003.47 1003.75 1004.10 1004.52 1005.03 1005.60 1006.24 1006.92 1007.64 1008.37 1009.08 1009.77 1010.43 1011.04 1011.62 1012.16 1012.68 1013.19 1013.69 1014.20 1014.71 1015.21 1015.71 1016.19 1016.65 1017.08 1017.48 1017.84 1018.17 1018.46 1018.71
Thickness
5793 5791 5787 5783 5778 5773 5769 5765 5760 5757 5755 5751 5748 5744 5742 5742 5742 5743 5743 5743 5743 5742 5742 5741 5740 5740 5738 5737 5736 5734 5732 5730 5730 5725 5721 5723 5725 5725 5726 5726 5724 5722 5721
5786 5786 5783 5781 5777 5773 5769 5765 5761 5758 5755 5752 5750 5746 5742 5741 5741 5741 5740 5741 5741 5740 5740 5740 5738 5738 5736 5734 5733 5732 5729 5728 5728 5722 5715 5711 5714 5719 5723 5723 5722 5721 5719
5788 5785 5782 5779 5776 5772 5769 5767 5762 5758 5755 5752 5748 5743 5739 5737 5735 5736 5736 5738 5739 5739 5738 5738 5737 5736 5735 5732 5731 5730 5728 5724 5724 5724 5718 5709 5705 5710 5716 5719 5720 5719 5717
5789 5786 5782 5778 5776 5774 5771 5767 5762 5758 5754 5751 5747 5742 5738 5734 5735 5736 5735 5736 5736 5736 5736 5736 5735 5734 5733 5731 5730 5729 5727 5725 5721 5721 5722 5720 5716 5709 5707 5711 5715 5716 5716
5791 5786 5783 5780 5778 5774 5770 5766 5761 5757 5754 5751 5747 5743 5739 5737 5736 5734 5733 5733 5734 5734 5734 5733 5733 5732 5731 5729 5728 5727 5726 5724 5721 5719 5719 5718 5716 5714 5708 5704 5707 5711 5713
5792 5787 5784 5779 5775 5772 5768 5763 5758 5755 5753 5750 5747 5743 5740 5737 5734 5732 5730 5730 5730 5731 5731 5731 5730 5730 5728 5727 5726 5725 5724 5723 5722 5720 5719 5717 5714 5711 5709 5704 5703 5704 5708
5788 5784 5779 5776 5772 5769 5765 5761 5757 5753 5752 5749 5746 5743 5741 5739 5736 5733 5730 5729 5728 5728 5729 5729 5728 5727 5726 5726 5725 5723 5722 5721 5720 5719 5718 5718 5717 5715 5712 5707 5703 5702 5704
5788 5784 5781 5777 5773 5769 5765 5761 5756 5753 5750 5747 5744 5743 5741 5739 5736 5734 5732 5730 5729 5728 5728 5728 5727 5726 5725 5724 5723 5721 5720 5720 5719 5719 5717 5716 5716 5716 5714 5709 5704 5699 5698
5786 5783 5779 5775 5772 5768 5765 5762 5758 5753 5750 5747 5744 5741 5740 5738 5735 5733 5732 5729 5728 5728 5727 5726 5725 5724 5723 5722 5720 5719 5718 5718 5717 5716 5716 5715 5714 5714 5714 5712 5709 5701 5693
5782 5780 5777 5775 5772 5769 5765 5762 5758 5754 5750 5747 5744 5741 5739 5737 5735 5732 5730 5728 5727 5727 5725 5724 5723 5722 5721 5720 5718 5717 5717 5716 5715 5714 5713 5713 5712 5712 5712 5710 5709 5706 5700
5778 5776 5774 5772 5770 5767 5764 5760 5756 5752 5749 5747 5744 5741 5737 5735 5733 5731 5729 5728 5726 5725 5723 5723 5721 5720 5719 5718 5717 5716 5715 5714 5713 5712 5711 5710 5711 5709 5709 5708 5706 5704 5701
5776 5774 5771 5767 5765 5763 5762 5760 5757 5753 5750 5747 5743 5740 5736 5734 5732 5730 5728 5727 5725 5724 5723 5721 5720 5719 5718 5717 5716 5714 5714 5712 5711 5710 5709 5708 5708 5707 5706 5704 5703 5702 5700
5770 5769 5768 5765 5763 5762 5761 5759 5756 5753 5750 5746 5742 5738 5735 5733 5731 5729 5728 5726 5725 5723 5722 5720 5719 5718 5717 5716 5715 5714 5712 5711 5710 5709 5708 5707 5706 5703 5702 5701 5700 5699 5698
5767 5766 5765 5763 5761 5760 5758 5756 5754 5752 5748 5744 5740 5737 5735 5734 5732 5730 5728 5726 5725 5722 5721 5720 5719 5718 5717 5715 5714 5713 5711 5710 5709 5708 5707 5706 5705 5702 5701 5699 5698 5696 5694
5763 5763 5762 5760 5758 5756 5754 5753 5751 5750 5748 5743 5739 5737 5736 5733 5731 5729 5727 5725 5724 5722 5721 5719 5718 5717 5716 5715 5713 5712 5710 5708 5707 5706 5706 5705 5705 5703 5701 5699 5696 5694 5690
5760 5760 5759 5758 5756 5754 5752 5751 5749 5748 5746 5742 5739 5737 5734 5732 5730 5728 5725 5723 5722 5721 5719 5718 5717 5716 5716 5716 5714 5712 5709 5707 5705 5703 5703 5703 5703 5701 5700 5698 5696 5694 5689
5756 5757 5757 5757 5756 5755 5754 5750 5748 5747 5744 5741 5738 5735 5733 5730 5729 5727 5724 5722 5721 5720 5718 5718 5716 5715 5715 5715 5713 5711 5709 5706 5704 5702 5701 5701 5701 5699 5696 5695 5694 5692 5690
5755 5756 5757 5756 5756 5755 5753 5752 5749 5746 5743 5740 5737 5735 5732 5730 5728 5725 5724 5722 5721 5720 5718 5717 5716 5714 5714 5713 5712 5710 5707 5705 5703 5701 5700 5697 5697 5696 5693 5690 5688 5686 5685
5756 5757 5758 5755 5753 5753 5751 5749 5746 5743 5741 5739 5738 5736 5734 5730 5728 5725 5724 5723 5721 5719 5718 5717 5715 5713 5713 5712 5710 5707 5704 5702 5700 5700 5698 5696 5694 5694 5691 5687 5683 5681 5680
5754 5755 5754 5752 5750 5749 5748 5745 5742 5741 5739 5740 5739 5737 5735 5731 5728 5727 5725 5723 5721 5719 5718 5716 5715 5714 5712 5710 5708 5705 5702 5699 5697 5696 5696 5695 5693 5691 5688 5684 5680 5676 5676
5750 5751 5749 5747 5747 5747 5745 5741 5739 5739 5740 5740 5738 5736 5734 5731 5729 5726 5724 5722 5720 5717 5715 5714 5713 5712 5711 5708 5706 5703 5700 5698 5694 5692 5691 5691 5690 5687 5684 5681 5678 5676 5674
5743 5745 5744 5743 5744 5745 5742 5738 5737 5740 5739 5738 5735 5733 5732 5730 5728 5724 5721 5720 5717 5714 5712 5710 5709 5708 5708 5706 5703 5700 5698 5696 5693 5690 5689 5688 5686 5683 5680 5677 5675 5673 5668
5735 5738 5738 5738 5739 5739 5739 5735 5736 5737 5736 5734 5732 5731 5729 5727 5726 5722 5719 5716 5715 5713 5710 5708 5706 5705 5704 5703 5701 5698 5695 5693 5690 5688 5686 5684 5681 5678 5675 5672 5670 5666 5661
5727 5729 5730 5730 5730 5732 5734 5735 5735 5734 5732 5730 5728 5727 5725 5723 5722 5721 5718 5716 5714 5711 5709 5706 5704 5702 5700 5699 5697 5694 5690 5687 5684 5682 5680 5677 5674 5671 5668 5665 5661 5658 5654
5719 5720 5721 5721 5723 5725 5728 5731 5731 5730 5728 5726 5725 5723 5722 5721 5718 5717 5716 5715 5715 5714 5710 5707 5704 5700 5697 5698 5696 5691 5687 5684 5680 5676 5671 5668 5664 5661 5658 5655 5653 5650 5646
5711 5712 5714 5715 5717 5719 5721 5724 5726 5726 5724 5722 5721 5720 5718 5716 5714 5712 5709 5709 5709 5708 5707 5706 5703 5700 5698 5694 5691 5687 5684 5680 5676 5669 5665 5662 5658 5655 5651 5648 5645 5642 5639